Time,TemperatureF,DewpointF,PressureIn,WindDirection,WindDirectionDegrees,WindSpeedMPH,WindSpeedGustMPH,Humidity,HourlyPrecipIn,Conditions,Clouds,dailyrainin,SolarRadiationWatts/m^2,SoftwareType,DateUTC
2014-12-25 00:00:00,48.8,48.3,29.55,NW,311,1.0,1.0,98,0.00,,,0.00,0,Wunderground v.1.15,2014-12-25 05:00:00,
2014-12-25 00:10:00,49.0,48.5,29.56,WNW,296,1.0,5.0,98,0.00,,,0.00,0,Wunderground v.1.15,2014-12-25 05:10:00,
2014-12-25 00:20:00,49.2,48.7,29.56,WNW,288,4.0,5.0,98,0.00,,,0.00,0,Wunderground v.1.15,2014-12-25 05:20:00,
2014-12-25 00:30:00,49.5,49.0,29.58,West,276,4.0,5.0,98,0.00,,,0.00,0,Wunderground v.1.15,2014-12-25 05:30:00,
2014-12-25 00:40:00,49.9,49.4,29.58,WNW,288,6.0,6.0,98,0.00,,,0.00,0,Wunderground v.1.15,2014-12-25 05:40:00,
2014-12-25 00:50:00,50.5,50.0,29.59,WNW,294,5.0,5.0,98,0.00,,,0.00,0,Wunderground v.1.15,2014-12-25 05:50:00,
2014-12-25 01:00:00,51.2,50.4,29.59,WNW,284,4.0,4.0,97,0.00,,,0.00,0,Wunderground v.1.15,2014-12-25 06:00:00,
2014-12-25 01:10:00,51.7,50.3,29.60,WNW,298,3.0,10.0,95,0.00,,,0.00,0,Wunderground v.1.15,2014-12-25 06:10:00,
2014-12-25 01:20:00,52.2,49.9,29.62,WNW,301,5.0,10.0,92,0.00,,,0.01,0,Wunderground v.1.15,2014-12-25 06:20:00,
2014-12-25 01:30:00,52.0,48.6,29.61,WNW,297,5.0,5.0,88,0.06,,,0.02,0,Wunderground v.1.15,2014-12-25 06:30:00,
2014-12-25 01:40:00,51.6,46.9,29.61,NW,308,6.0,6.0,84,0.00,,,0.03,0,Wunderground v.1.15,2014-12-25 06:40:00,
2014-12-25 01:50:00,51.3,46.3,29.63,WNW,296,5.0,5.0,83,0.00,,,0.03,0,Wunderground v.1.15,2014-12-25 06:50:00,
2014-12-25 02:00:00,51.0,45.7,29.64,WNW,295,5.0,5.0,82,0.04,,,0.04,0,Wunderground v.1.15,2014-12-25 07:00:00,
2014-12-25 02:10:00,50.6,45.3,29.64,WNW,296,3.0,3.0,82,0.04,,,0.04,0,Wunderground v.1.15,2014-12-25 07:10:00,
2014-12-25 02:20:00,50.2,45.2,29.65,NW,304,3.0,11.0,83,0.00,,,0.05,0,Wunderground v.1.15,2014-12-25 07:20:00,
2014-12-25 02:30:00,49.9,44.9,29.66,WNW,292,3.0,3.0,83,0.00,,,0.05,0,Wunderground v.1.15,2014-12-25 07:30:00,
2014-12-25 02:40:00,49.5,44.6,29.65,WNW,297,4.0,4.0,83,0.00,,,0.05,0,Wunderground v.1.15,2014-12-25 07:40:00,
2014-12-25 02:50:00,49.1,43.5,29.67,NW,320,6.0,6.0,81,0.00,,,0.05,0,Wunderground v.1.15,2014-12-25 07:50:00,
2014-12-25 03:00:00,48.6,43.0,29.67,WNW,293,5.0,8.0,81,0.00,,,0.06,0,Wunderground v.1.15,2014-12-25 08:00:00,
2014-12-25 03:10:00,48.2,42.6,29.68,WNW,286,5.0,5.0,81,0.00,,,0.06,0,Wunderground v.1.15,2014-12-25 08:10:00,
2014-12-25 03:20:00,47.8,42.6,29.66,WNW,292,4.0,14.0,82,0.00,,,0.06,0,Wunderground v.1.15,2014-12-25 08:20:00,
2014-12-25 03:30:00,47.5,42.3,29.64,WNW,298,3.0,3.0,82,0.00,,,0.06,0,Wunderground v.1.15,2014-12-25 08:30:00,
2014-12-25 03:40:00,47.4,42.2,29.66,WNW,294,2.0,2.0,82,0.00,,,0.06,0,Wunderground v.1.15,2014-12-25 08:40:00,
2014-12-25 03:50:00,47.2,42.0,29.66,West,278,3.0,3.0,82,0.00,,,0.06,0,Wunderground v.1.15,2014-12-25 08:50:00,
2014-12-25 04:00:00,47.1,41.9,29.66,West,281,2.0,4.0,82,0.00,,,0.06,0,Wunderground v.1.15,2014-12-25 09:00:00,
2014-12-25 04:10:00,47.0,41.5,29.67,WNW,288,4.0,16.0,81,0.00,,,0.06,0,Wunderground v.1.15,2014-12-25 09:10:00,
2014-12-25 04:20:00,47.2,41.3,29.67,WNW,302,4.0,16.0,80,0.00,,,0.06,0,Wunderground v.1.15,2014-12-25 09:20:00,
2014-12-25 04:30:00,47.4,40.9,29.69,West,278,5.0,16.0,78,0.00,,,0.06,0,Wunderground v.1.15,2014-12-25 09:30:00,
2014-12-25 04:40:00,47.4,40.9,29.69,West,263,4.0,4.0,78,0.00,,,0.06,0,Wunderground v.1.15,2014-12-25 09:40:00,
2014-12-25 04:50:00,47.1,40.6,29.67,West,272,4.0,4.0,78,0.00,,,0.06,0,Wunderground v.1.15,2014-12-25 09:50:00,
2014-12-25 05:00:00,46.9,40.1,29.69,WNW,288,5.0,5.0,77,0.00,,,0.06,0,Wunderground v.1.15,2014-12-25 10:00:00,
2014-12-25 05:10:00,46.9,39.7,29.69,WNW,296,5.0,5.0,76,0.00,,,0.06,0,Wunderground v.1.15,2014-12-25 10:10:00,
2014-12-25 05:20:00,46.9,39.4,29.70,WNW,288,6.0,10.0,75,0.00,,,0.06,0,Wunderground v.1.15,2014-12-25 10:20:00,
2014-12-25 05:30:00,46.9,39.0,29.70,WSW,250,7.0,7.0,74,0.00,,,0.06,0,Wunderground v.1.15,2014-12-25 10:30:00,
2014-12-25 05:40:00,47.1,38.9,29.72,West,279,9.0,9.0,73,0.00,,,0.06,0,Wunderground v.1.15,2014-12-25 10:40:00,
2014-12-25 05:50:00,47.0,38.4,29.73,WNW,292,6.0,6.0,72,0.00,,,0.06,0,Wunderground v.1.15,2014-12-25 10:50:00,
2014-12-25 06:00:00,46.9,38.3,29.73,WNW,297,6.0,11.0,72,0.00,,,0.06,0,Wunderground v.1.15,2014-12-25 11:00:00,
2014-12-25 06:10:00,46.9,38.0,29.75,West,274,6.0,11.0,71,0.00,,,0.06,0,Wunderground v.1.15,2014-12-25 11:10:00,
2014-12-25 06:20:00,47.0,36.2,29.73,NW,304,8.0,10.0,66,0.00,,,0.06,0,Wunderground v.1.15,2014-12-25 11:20:00,
2014-12-25 06:30:00,47.0,35.8,29.75,West,278,9.0,10.0,65,0.00,,,0.06,0,Wunderground v.1.15,2014-12-25 11:30:00,
2014-12-25 06:40:00,47.0,35.4,29.74,WNW,288,7.0,7.0,64,0.00,,,0.06,0,Wunderground v.1.15,2014-12-25 11:40:00,
2014-12-25 06:50:00,46.9,34.6,29.75,WNW,297,7.0,7.0,62,0.00,,,0.06,0,Wunderground v.1.15,2014-12-25 11:50:00,
2014-12-25 07:00:00,47.0,34.2,29.75,WNW,288,8.0,8.0,61,0.00,,,0.06,0,Wunderground v.1.15,2014-12-25 12:00:00,
2014-12-25 07:10:00,47.0,34.2,29.76,WSW,252,7.0,17.0,61,0.00,,,0.06,0,Wunderground v.1.15,2014-12-25 12:10:00,
2014-12-25 07:20:00,46.7,34.0,29.76,WNW,296,7.0,7.0,61,0.00,,,0.06,0,Wunderground v.1.15,2014-12-25 12:20:00,
2014-12-25 07:30:00,46.6,33.4,29.77,WNW,300,8.0,8.0,60,0.00,,,0.06,0,Wunderground v.1.15,2014-12-25 12:30:00,
2014-12-25 07:40:00,46.3,33.2,29.78,WNW,289,8.0,8.0,60,0.00,,,0.06,0,Wunderground v.1.15,2014-12-25 12:40:00,